AirNav   Air Wisconsin Airman Trainee
 
 391 users online  

4AL3 Treeo Airport
Daphne, Alabama, USA

GOING TO DAPHNE?


FAA INFORMATION EFFECTIVE 28 MARCH 2019

Location

FAA Identifier: 4AL3
Lat/Long: 30-35-30.5000N / 087-49-21.3000W
30-35.508333N / 087-49.355000W
30.5918056 / -87.8225833
(estimated)
Elevation: 130 ft. / 40 m
From city: 5 miles NW of DAPHNE, AL
Time zone: UTC -5 (UTC -6 during Standard Time)
Zip code: 36551

Airport Operations

Airport use: Private use. Permission required prior to landing
Activation date: 03/2014
Control tower: no
ARTCC: HOUSTON CENTER
FSS: ANNISTON FLIGHT SERVICE STATION
Attendance: UNATNDD
Wind indicator: yes
Segmented circle: no

Airport Communications

WX AWOS-3PT at CQF (8 nm S): 118.425 (251-928-3242)
WX ASOS at BFM (13 nm W): PHONE 251-431-6762
WX AWOS-3PT at JKA (20 nm SE): 134.525 (251-968-7581)

Nearby radio navigation aids

VOR radial/distance  VOR name  Freq  Var
BFMr092/12.1BROOKLEY VORTAC112.8004E
NUNr285/(26.2)SAUFLEY VOR108.8001E
SJIr101/28.8SEMMES VORTAC115.3005E

 
NDB name  Hdg/Dist  Freq  Var  ID
WISLE113/26.824801WMOB -- --- -...
PICKENS288/34.632602WPKZ .--. -.- --..

Airport Services

Runway Information

Runway 9/27

Dimensions: 2600 x 60 ft. / 792 x 18 m
Surface: turf
RUNWAY 9  RUNWAY 27
Traffic pattern: leftleft
Displaced threshold: 500 ft.65 ft.
Obstructions: 25 ft. pline, 10 ft. from runway4 ft. fence, 10 ft. from runway

Airport Ownership and Management from official FAA records

Ownership: Privately-owned
Owner: GREGORY S. BURRIS
11800 BURRIS RD.
DAPHNE, AL 36526
Phone 251-989-4525
Manager: GREGORY S. BURRIS
11800 BURRIS RD.
DAPHNE, AL 36526
Phone 251-989-4525

Airport Operational Statistics

Aircraft based on the field: 2
Single engine airplanes: 1
Gliders airplanes: 1
    

Instrument Procedures

There are no published instrument procedures at 4AL3.

Some nearby airports with instrument procedures:

KCQF - H L Sonny Callahan Airport (8 nm S)
5R4 - Foley Municipal Airport (12 nm SE)
KBFM - Mobile Downtown Airport (13 nm W)
1R8 - Bay Minette Municipal Airport (17 nm N)
KJKA - Jack Edwards National Airport (20 nm SE)
 
Loc | Ops | Rwys | IFR | FBO | Links
Com | Nav | Svcs | Stats | Notes
Aerial photo
No photo
 
Airport distance calculator
Flying to Treeo Airport? Find the distance to fly.

From to 4AL3

Sunrise and sunset
Times for 23-Apr-2019
 Local
(UTC-5)
 Zulu
(UTC)
Morning civil twilight05:5110:51
Sunrise06:1611:16
Sunset19:2300:23
Evening civil twilight19:4800:48

Current date and time
Zulu (UTC)  23-Apr-2019 09:53:20
Local (UTC-5)  23-Apr-2019 04:53:20
 
METAR
KCQF 
8nm S 
230935Z AUTO 00000KT 10SM CLR 09/09 A3011 RMK AO2
KBFM 
13nm W 
230853Z 28003KT 10SM CLR 12/12 A3012 RMK AO2 SLP197 T01170117 56010
KJKA 
20nm SE 
230935Z AUTO 00000KT 4SM BR CLR 10/10 A3010 RMK AO2 T01000100
TAF
KBFM 
13nm W 
230520Z 2306/2406 25003KT P6SM SCT250 FM231600 12006KT P6SM SCT250
NOTAMs
Click for the latest NOTAMs
NOTAMs are issued by the DoD/FAA and will open in a separate window not controlled by AirNav.

 

 
 

Would you like to see your business listed on this page?

 If your business provides an interesting product or service to pilots, flight crews, aircraft, or users of the Treeo Airport, you should consider listing it here.  To start the listing process, click on the button below
 
Add a business
 

Other Pages about Treeo Airport

Update a link
 
Copyright © AirNav, LLC. All rights reserved. Privacy Policy  Contact